Location: Unspecified
(0.0000°N, 0.0000°E)
Time: 18:17:39
(UTC+00:00)

Courier 1B Rocket - Pass Details

Date: 17 December 2018
Orbit: 920 x 1202 km, 28.2° (Epoch: 21 March)

Event Time Altitude Azimuth Distance (km) Brightness Sun altitude
Rises 17:29:13 0° 284° (WNW) 4,065 9.2 6.2°
Reaches altitude 10° 17:32:12 10° 278° (W) 3,118 8.8 5.5°
Maximum altitude 17:39:30 42° 209° (SSW) 1,635 6.9 3.8°
Drops below altitude 10° 17:46:45 10° 140° (SE) 3,094 7.5 2.2°
Sets 17:49:44 0° 133° (SE) 4,030 8.0 1.5°
